Regional Weather Roundup
Issued by NWS

Home | Current Version | Previous Version | Text Only | Print | Product List | Glossary On
Versions: 1 2 3 4 5 6 7 8 9 10 11 12 13 14 15 16 17 18 19 20 21 22 23 24 25 26 27 28 29 30 31 32 33 34 35 36 37 38 39 40 41 42 43 44 45 46 47 48 49 50
000
ASUS44 KFWD 300815
RWRTX
NORTH TEXAS HOURLY WEATHER ROUNDUP
NATIONAL WEATHER SERVICE FORT WORTH TX
300 AM CDT THU JUN 30 2016

NOTE: "FAIR" INDICATES FEW OR NO CLOUDS BELOW 12,000 FEET WITH NO
SIGNIFICANT WEATHER AND/OR OBSTRUCTIONS TO VISIBILITY.

TXZ118-119-300900-
DALLAS/FORT WORTH METROPLEX

CITY           SKY/WX    TMP DP  RH WIND       PRES   REMARKS
DFW AIRPORT    CLEAR     80  66  62 SE5       29.98F
DALLAS LOVE    PTCLDY    80  68  66 SE5       29.98F
FTW MEACHAM    CLEAR     79  67  66 SE6       29.98F
DAL-EXECUTIVE  CLEAR     74  68  81 CALM      29.98F
FTW-ALLIANCE   PTCLDY    72  67  84 S3        29.98F
FTW-NAS-JRB    CLEAR     79  66  64 VRB3      29.99F
FTW-SPINKS     CLEAR     71  69  95 CALM      30.00F
ARLINGTON      CLEAR     73  70  90 CALM      29.99F
GRAND PRAIRIE  CLEAR     79  69  71 CALM      30.00F
ADDISON        CLEAR     82  68  62 SE7       30.00S
MESQUITE       CLEAR     74  69  85 CALM      29.99S
LANCASTER      CLEAR     74  68  83 CALM      30.00S HAZE
$$

TXZ091>094-102>105-117-120-121-131>134-300900-
NORTH CENTRAL TEXAS

CITY           SKY/WX    TMP DP  RH WIND       PRES   REMARKS
SHRMAN/DENISON CLEAR     75  67  76 E5        30.01F
GAINESVILLE    CLEAR     73  66  79 CALM      30.01F
BOWIE          CLEAR     70  66  89 CALM      30.01F
BRIDGEPORT     CLEAR     70  68  93 CALM      30.02S
DECATUR        CLEAR     76  64  65 SE5       30.01S
DENTON         CLEAR     70  67  90 CALM      29.98F
MCKINNEY       CLEAR     72  69  90 CALM      29.99F
GREENVILLE     CLEAR     72  70  94 CALM      30.00S
ROCKWALL       CLEAR     77  68  73 SE5       29.98F
TERRELL        CLEAR     74  68  81 CALM      29.99F
WAXAHACHIE     CLEAR     73  70  91 CALM      30.00F
CLEBURNE       CLEAR     75  72  88 CALM      30.01F
GRANBURY       CLEAR     72  66  81 CALM      30.01S
$$

TXZ083>090-098>101-113>116-127>130-139>142-154-155-300900-
WESTERN NORTH TEXAS

CITY           SKY/WX    TMP DP  RH WIND       PRES   REMARKS
WICHITA FALLS  CLEAR     71  67  87 VRB7      29.99F
WF-KICKAPOO    CLEAR     74  67  76 S5        30.00F
VERNON         CLEAR     75  65  72 S6        30.00F
ABILENE        CLEAR     72  66  81 SE6       30.04S
ABILENE-DYESS  CLEAR     71  64  80 S5        30.02F
CISCO          CLEAR     73  70  88 SE7       30.05S
BRECKENRIDGE   CLEAR     75  65  70 SE10      30.01F
GRAHAM         CLEAR     72  66  82 CALM      29.99F
MINERAL WELLS  CLEAR     70  65  84 SE5       29.99F
STEPHENVILLE   CLEAR     73  65  77 CALM      30.04F
COMANCHE       CLEAR     73  69  87 SE3       30.03S
BROWNWOOD      MOCLDY    72  70  94 CALM      30.02F
COLEMAN        CLEAR     73  65  75 CALM      30.04S
$$

TXZ143>147-156>162-174-175-300900-
CENTRAL TEXAS

CITY           SKY/WX    TMP DP  RH WIND       PRES   REMARKS
WACO           PTCLDY    73  68  84 N3        29.98S
WACO-MCGREGOR  CLEAR     74  70  87 NW5       29.99R
HILLSBORO      CLEAR     73  68  83 CALM      29.99F
CORSICANA      PTCLDY    78  69  73 CALM      29.98F
MEXIA          CLEAR     75  70  83 CALM      29.98S
CAMERON        CLEAR     76  74  93 CALM      29.96S
TEMPLE         CLEAR     74  72  93 N3        29.99R
KILLEEN        CLEAR     78  71  80 E6        29.99R
KILLEEN-SKYLRK CLEAR     75  72  90 CALM      29.99S
FORT HOOD      CLEAR     77  70  79 E2        29.97S
GATESVILLE     CLEAR     75  72  88 CALM      30.02S
HAMILTON       CLEAR     74  71  89 CALM      30.03S
LAMPASAS       CLEAR     76  72  89 CALM      30.00S
$$

TXZ095>097-106>112-122>126-135>138-148>153-164>167-300900-
EAST TEXAS

CITY           SKY/WX    TMP DP  RH WIND       PRES   REMARKS
PARIS          CLEAR     73  61  64 E8        30.00F
SULPHUR SPRNGS CLEAR     74  71  90 CALM      30.01F
MOUNT PLEASANT CLEAR     72  71  98 CALM      30.01S
GILMER         CLEAR     70  68  93 CALM      29.99F THUNDER
MINEOLA        CLEAR     72  70  94 CALM      30.00F
TYLER          CLEAR     76  68  76 E3        29.98F
LONGVIEW       CLEAR     71  70  96 N3        29.98S
MARSHALL       CLEAR     70  68  92 CALM      30.00S
ATHENS         PTCLDY    72  72 100 CALM      29.97F
PALESTINE      CLEAR     74  70  89 CALM      29.99S
JACKSONVILLE   CLEAR     76  70  80 CALM      30.01S
HENDERSON      CLEAR     70  69  96 CALM      29.99S
CENTER         SUNNY    N/A N/A N/A MISG      29.97S
NACOGDOCHES    CLEAR    N/A N/A N/A CALM      29.96S
LUFKIN         CLEAR     73  71  93 CALM      29.96S
$$

SUPPLEMENTAL OBSERVATIONS (CENTRAL)

CITY           SKY/WX    TMP DP  RH WIND       PRES   REMARKS
LAKE TEXOMA      N/A     75  70  83 CALM        N/A
CADDO GRASSLND   N/A     72  66  83 CALM        N/A
PAT MAYSE LAKE   N/A     72  70  94 NW1         N/A
GREENVILLE       N/A     73  70  88 N1          N/A
CEDAR HILL       N/A     75  66  73 SE3         N/A
MCGREGOR         N/A     73  68  83 CALM        N/A
TEMPLE           N/A     79  72  78 NE3         N/A
$$

SUPPLEMENTAL OBSERVATIONS (WEST)

CITY           SKY/WX    TMP DP  RH WIND       PRES   REMARKS
MILLERS CREEK    N/A     77  68  73 S12         N/A
POSSUM KINGDOM   N/A     75  64  69 S2          N/A
LBJ GRASSLAND    N/A     75  64  69 SE3         N/A
GRANBURY         N/A     72  66  83 W2          N/A
HAMBY            N/A     73  66  78 SE5         N/A
IVIE RESERVOIR   N/A     72  63  73 SE3         N/A
COLORADO BEND    N/A     75  68  78 SE3         N/A
$$

SUPPLEMENTAL OBSERVATIONS (EAST)

CITY           SKY/WX    TMP DP  RH WIND       PRES   REMARKS
CLARKSVILLE      N/A     73  70  88 E1          N/A
TEXARKANA        N/A     72  70  94 CALM        N/A
LINDEN           N/A     72  66  83 CALM        N/A
CADDO LAKE       N/A     68  64  88 CALM        N/A
GILMER           N/A     72  66  83 CALM        N/A
HENDERSON        N/A     70  66  88 CALM        N/A
LUFKIN           N/A     73  70  88 MISG        N/A
N SABINE NF      N/A     72  68  88 MISG        N/A
S SABINE NF      N/A     72  68  88 CALM        N/A
$$

SUPPLEMENTAL OBSERVATIONS ARE A COLLECTION OF AUTOMATED INSTRUMENTS
THAT ARE MAINTAINED BY A VARIETY OF FEDERAL AND STATE AGENCIES.
CERTAIN ELEMENTS...SUCH AS HUMIDITY VALUES AND SUSTAINED WIND
SPEEDS...MAY BE APPROXIMATED.





USA.gov is the U.S. government's official web portal to all federal, state and local government web resources and services.